Stündliche Wetter Bolshie Hutora

Heute, 11 April, Sonntag

Zeit Temperatur Niederschläge Wind Luftdruck Luftfeuchtigkeit
00:00 +1°C° 0 mm 3 m/S 754 mmHg 97%
01:00 +1°C° 0 mm 3 m/S 754 mmHg 97%
02:00 +1°C° 0 mm 3 m/S 755 mmHg 97%
03:00 0°C° 0 mm 4 m/S 755 mmHg 96%
04:00 -1°C° 0 mm 4 m/S 755 mmHg 96%
05:00 -1°C° 0 mm 4 m/S 755 mmHg 96%
06:00 -1°C° 0 mm 4 m/S 756 mmHg 95%
07:00 0°C° 0 mm 4 m/S 756 mmHg 90%
08:00 +2°C° 0 mm 5 m/S 756 mmHg 85%
09:00 +3°C° 0 mm 5 m/S 757 mmHg 80%
10:00 +5°C° 0 mm 5 m/S 757 mmHg 77%
11:00 +6°C° 0 mm 5 m/S 757 mmHg 74%
12:00 +7°C° 0 mm 5 m/S 757 mmHg 71%
13:00 +7°C° 0.4 mm 5 m/S 757 mmHg 73%
14:00 +7°C° 0.4 mm 5 m/S 757 mmHg 75%
15:00 +7°C° 0.4 mm 5 m/S 757 mmHg 77%
16:00 +6°C° 0.4 mm 5 m/S 758 mmHg 81%
17:00 +6°C° 0.4 mm 5 m/S 758 mmHg 84%
18:00 +5°C° 0.4 mm 5 m/S 758 mmHg 87%
19:00 +5°C° 0.5 mm 5 m/S 758 mmHg 89%
20:00 +5°C° 0.5 mm 5 m/S 758 mmHg 91%
21:00 +3°C° 0.5 mm 5 m/S 758 mmHg 93%
22:00 +3°C° 0.1 mm 5 m/S 758 mmHg 94%
23:00 +3°C° 0.1 mm 5 m/S 758 mmHg 94%

Morgen, 12 April, Montag

Zeit Temperatur Niederschläge Wind Luftdruck Luftfeuchtigkeit
00:00 +3°C° 0.1 mm 5 m/S 758 mmHg 95%
01:00 +3°C° 0 mm 5 m/S 759 mmHg 95%
02:00 +3°C° 0 mm 5 m/S 759 mmHg 96%
03:00 +3°C° 0 mm 5 m/S 759 mmHg 96%
04:00 +3°C° 0 mm 5 m/S 759 mmHg 96%
05:00 +3°C° 0 mm 5 m/S 759 mmHg 97%
06:00 +3°C° 0 mm 5 m/S 759 mmHg 97%
07:00 +5°C° 0 mm 5 m/S 759 mmHg 95%
08:00 +5°C° 0 mm 5 m/S 759 mmHg 93%
09:00 +5°C° 0 mm 6 m/S 759 mmHg 91%
10:00 +8°C° 0 mm 5 m/S 759 mmHg 85%
11:00 +10°C° 0 mm 5 m/S 759 mmHg 79%
12:00 +13°C° 0 mm 5 m/S 759 mmHg 73%
13:00 +14°C° 0 mm 5 m/S 758 mmHg 67%
14:00 +17°C° 0 mm 4 m/S 758 mmHg 62%
15:00 +19°C° 0 mm 4 m/S 758 mmHg 56%
16:00 +18°C° 0 mm 4 m/S 758 mmHg 60%
17:00 +17°C° 0 mm 4 m/S 758 mmHg 63%
18:00 +16°C° 0 mm 3 m/S 758 mmHg 67%
19:00 +14°C° 0 mm 3 m/S 758 mmHg 70%
20:00 +13°C° 0 mm 3 m/S 758 mmHg 73%
21:00 +12°C° 0 mm 3 m/S 758 mmHg 77%
22:00 +11°C° 0 mm 3 m/S 758 mmHg 78%
23:00 +11°C° 0 mm 3 m/S 758 mmHg 80%

übermorgen, 13 April, Dienstag

Zeit Temperatur Niederschläge Wind Luftdruck Luftfeuchtigkeit
00:00 +10°C° 0 mm 3 m/S 758 mmHg 81%
01:00 +10°C° 0 mm 3 m/S 758 mmHg 82%
02:00 +9°C° 0 mm 3 m/S 758 mmHg 82%
03:00 +9°C° 0 mm 3 m/S 758 mmHg 83%
04:00 +9°C° 0 mm 3 m/S 758 mmHg 81%
05:00 +8°C° 0 mm 3 m/S 758 mmHg 80%
06:00 +8°C° 0 mm 3 m/S 758 mmHg 78%
07:00 +10°C° 0 mm 4 m/S 758 mmHg 71%
08:00 +11°C° 0 mm 4 m/S 758 mmHg 63%
09:00 +13°C° 0 mm 5 m/S 758 mmHg 56%
10:00 +14°C° 0 mm 5 m/S 758 mmHg 50%
11:00 +16°C° 0 mm 5 m/S 758 mmHg 44%
12:00 +17°C° 0 mm 5 m/S 758 mmHg 38%
13:00 +19°C° 0 mm 5 m/S 758 mmHg 37%
14:00 +19°C° 0 mm 5 m/S 757 mmHg 35%
15:00 +20°C° 0 mm 4 m/S 757 mmHg 33%
16:00 +19°C° 0 mm 4 m/S 757 mmHg 38%
17:00 +18°C° 0 mm 3 m/S 757 mmHg 43%
18:00 +16°C° 0 mm 3 m/S 756 mmHg 48%
19:00 +14°C° 0 mm 3 m/S 757 mmHg 51%
20:00 +13°C° 0 mm 3 m/S 757 mmHg 55%
21:00 +11°C° 0 mm 3 m/S 757 mmHg 59%
22:00 +11°C° 0 mm 3 m/S 757 mmHg 61%
23:00 +10°C° 0 mm 3 m/S 757 mmHg 63%

14 April, Mittwoch

Zeit Temperatur Niederschläge Wind Luftdruck Luftfeuchtigkeit
00:00 +9°C° 0 mm 3 m/S 756 mmHg 65%
01:00 +9°C° 0 mm 3 m/S 756 mmHg 67%
02:00 +8°C° 0 mm 3 m/S 756 mmHg 70%
03:00 +8°C° 0 mm 3 m/S 756 mmHg 72%
04:00 +8°C° 0 mm 3 m/S 756 mmHg 73%
05:00 +7°C° 0 mm 3 m/S 756 mmHg 75%
06:00 +7°C° 0 mm 3 m/S 756 mmHg 77%
07:00 +9°C° 0 mm 3 m/S 756 mmHg 70%
08:00 +11°C° 0 mm 4 m/S 756 mmHg 64%
09:00 +13°C° 0 mm 4 m/S 756 mmHg 58%
10:00 +14°C° 0 mm 4 m/S 755 mmHg 52%
11:00 +17°C° 0 mm 4 m/S 755 mmHg 46%
12:00 +18°C° 0 mm 4 m/S 755 mmHg 40%
13:00 +18°C° 0 mm 4 m/S 754 mmHg 37%
14:00 +19°C° 0 mm 4 m/S 754 mmHg 33%
15:00 +19°C° 0 mm 4 m/S 753 mmHg 30%
16:00 +18°C° 0 mm 4 m/S 753 mmHg 35%
17:00 +17°C° 0 mm 3 m/S 753 mmHg 40%
18:00 +16°C° 0 mm 3 m/S 753 mmHg 44%
19:00 +14°C° 0 mm 3 m/S 753 mmHg 49%
20:00 +13°C° 0 mm 3 m/S 753 mmHg 53%
21:00 +11°C° 0 mm 3 m/S 753 mmHg 57%
22:00 +11°C° 0 mm 3 m/S 752 mmHg 59%
23:00 +10°C° 0 mm 3 m/S 752 mmHg 62%

15 April, Donnerstag

Zeit Temperatur Niederschläge Wind Luftdruck Luftfeuchtigkeit
00:00 +9°C° 0 mm 3 m/S 752 mmHg 64%
01:00 +9°C° 0 mm 3 m/S 752 mmHg 66%
02:00 +8°C° 0 mm 3 m/S 752 mmHg 68%
03:00 +7°C° 0 mm 3 m/S 751 mmHg 70%
04:00 +7°C° 0 mm 3 m/S 751 mmHg 71%
05:00 +7°C° 0 mm 3 m/S 751 mmHg 73%
06:00 +7°C° 0 mm 3 m/S 751 mmHg 74%
07:00 +9°C° 0 mm 3 m/S 751 mmHg 69%
08:00 +11°C° 0 mm 3 m/S 751 mmHg 63%
09:00 +12°C° 0 mm 3 m/S 751 mmHg 58%
10:00 +14°C° 0 mm 3 m/S 750 mmHg 53%
11:00 +16°C° 0 mm 3 m/S 750 mmHg 49%
12:00 +18°C° 0 mm 3 m/S 750 mmHg 44%
13:00 +18°C° 0 mm 2 m/S 749 mmHg 42%
14:00 +19°C° 0 mm 2 m/S 749 mmHg 40%
15:00 +19°C° 0 mm 2 m/S 749 mmHg 38%
16:00 +19°C° 0 mm 2 m/S 748 mmHg 41%
17:00 +19°C° 0 mm 1 m/S 748 mmHg 45%
18:00 +18°C° 0 mm 1 m/S 748 mmHg 48%
19:00 +16°C° 0 mm 1 m/S 748 mmHg 51%
20:00 +15°C° 0 mm 1 m/S 748 mmHg 53%
21:00 +14°C° 0 mm 1 m/S 747 mmHg 56%
22:00 +13°C° 0 mm 1 m/S 747 mmHg 58%
23:00 +13°C° 0 mm 1 m/S 747 mmHg 61%

16 April, Freitag

Zeit Temperatur Niederschläge Wind Luftdruck Luftfeuchtigkeit
00:00 +12°C° 0 mm 1 m/S 747 mmHg 63%
01:00 +12°C° 0 mm 1 m/S 747 mmHg 64%
02:00 +10°C° 0 mm 0 m/S 747 mmHg 66%
03:00 +10°C° 0 mm 0 m/S 747 mmHg 67%
04:00 +10°C° 0 mm 1 m/S 747 mmHg 70%
05:00 +9°C° 0 mm 2 m/S 747 mmHg 73%
06:00 +8°C° 0 mm 3 m/S 747 mmHg 75%
07:00 +8°C° 0 mm 4 m/S 747 mmHg 76%
08:00 +8°C° 0 mm 5 m/S 748 mmHg 77%
09:00 +8°C° 0 mm 7 m/S 748 mmHg 78%
10:00 +8°C° 0 mm 7 m/S 749 mmHg 77%
11:00 +7°C° 0 mm 8 m/S 749 mmHg 75%
12:00 +7°C° 0 mm 8 m/S 750 mmHg 74%
13:00 +6°C° 0 mm 8 m/S 750 mmHg 71%
14:00 +6°C° 0 mm 8 m/S 750 mmHg 68%
15:00 +6°C° 0 mm 8 m/S 751 mmHg 65%
16:00 +6°C° 0 mm 8 m/S 751 mmHg 59%
17:00 +6°C° 0 mm 8 m/S 751 mmHg 53%
18:00 +6°C° 0 mm 8 m/S 751 mmHg 47%
19:00 +5°C° 0 mm 7 m/S 752 mmHg 48%
20:00 +4°C° 0 mm 7 m/S 752 mmHg 48%
21:00 +3°C° 0 mm 7 m/S 753 mmHg 48%
22:00 +2°C° 0 mm 7 m/S 753 mmHg 52%
23:00 +1°C° 0 mm 6 m/S 754 mmHg 56%
Mehr zeigen

Wir brauchen deine Erlaubnis

Meteoprog und unser Service Anbieter werden persönliche Daten aufbewahren, so wie Cookies, Geräte Bezeichnung oder ähnliche Technologien von deinem Gerät und Prozess, so wie Persönliche Daten Inhalte und Werbungen, genauso wie social Media und den Verkehr zu analysieren.

  • Aufbewahrung und/oder Zugang zu deiner Geräte Informationen.

    Cookies, Geräte Bezeichnung oder andere Informationen, können aufbewahrt oder Zugang zu deinem Gerät erhalten, für den Grund, der oben angegeben wird.

  • Personalisierte Werbung und Inhalte, Messungen, Einblick in das Publikum und Produkt Entwicklung.

    Werbungen und Inhalte können personalisiert werden, basierend auf ein Profil. Mehr Daten können besser personalisierte Werbungen und Inhalte hinzufügen. Werbung und Inhalte können gezeigt und gemessen werden. Einblicke über das Publikum, welche die Werbung gesehen haben und den Inhalt, können abgeleitet werden. So wie Daten können genutzt werden, um es zu verbessern oder die Benutzer Erfahrung zu verbessern das System und die Software.

Wenn du “Ich stimme zu” klickst, erlaubst du uns, die Cookies zu benutzen die Geräte Bezeichnung, den Web oder ähnliche Technologien zu benutzen. Deine Settings, können in deinem Gerät bei deinem Browser geändert werden.

Für den bestimmten Zweck, berechtigten Interessen beruhen darauf, mehr als auf den Inhalt. Du kannst mehr darüber in unseren Privaten und Cookie Politik lesen.